Regional Weather Roundup
Issued by NWS Sioux Falls, SD

Home | Current Version | Previous Version | Text Only | Print | Product List | Glossary On
Versions: 1 2 3 4 5 6 7 8 9 10 11 12 13 14 15 16 17 18 19 20 21 22 23 24 25 26 27 28 29 30 31 32 33 34 35 36 37 38 39 40 41 42 43 44 45 46 47 48 49 50
000
ASUS43 KFSD 011510
RWRFSD

WEATHER ROUNDUP FOR SE SOUTH DAKOTA/SW MINNESOTA/NW IOWA
NATIONAL WEATHER SERVICE SIOUX FALLS SD
1000 AM CDT SAT OCT 01 2016

NOTE: "FAIR" INDICATES FEW OR NO CLOUDS BELOW 12,000 FEET WITH NO
SIGNIFICANT WEATHER AND OR OBSTRUCTIONS TO VISIBILITY.


SDZ038>040-050-052>070-011600-
SOUTHEAST SOUTH DAKOTA

CITY           SKY/WX    TMP DP  RH WIND       PRES   REMARKS
BROOKINGS      MOSUNNY   61  54  77 S5        30.15S
CHAMBERLAIN    SUNNY     65  48  54 SE13G18   30.08R
HURON          MOSUNNY   62  51  67 S12       30.11S
MADISON        FAIR      57  57 100 S5        30.15F
MITCHELL       SUNNY     58  49  72 S9        30.13S
SIOUX FALLS    CLOUDY    59  54  83 CALM      30.16S
WINNER         FAIR      62  46  55 S16       30.05S
YANKTON        PTSUNNY   55  52  88 CALM      30.13S
$$

MNZ071-072-080-081-089-090-097-098-011600-
SOUTHWEST MINNESOTA

CITY           SKY/WX    TMP DP  RH WIND       PRES   REMARKS
FAIRMONT       CLOUDY    61  55  81 CALM      30.15S
JACKSON        CLOUDY    63  52  67 N3        30.16S
LUVERNE        CLOUDY    57  52  82 CALM      30.17R
MARSHALL       CLOUDY    54  51  90 CALM      30.17S
MONTEVIDEO     MOSUNNY   59  54  82 SE5       30.18F
PIPESTONE      CLOUDY    61  55  82 CALM      30.16S
REDWOOD FALLS  CLOUDY    56  52  86 VRB3      30.17S
TRACY          CLOUDY    58  54  87 NE3       30.17S
WINDOM         CLOUDY    63  54  72 N3        30.16S
WORTHINGTON    CLOUDY    59  54  83 CALM      30.17S
$$

IAZ001>003-012>014-020>022-031-032-NEZ013-014-SDZ071-011600-
NORTHWEST IOWA

CITY           SKY/WX    TMP DP  RH WIND       PRES   REMARKS
CHEROKEE       CLOUDY    60  58  93 CALM      30.15S
DENISON        CLOUDY    59  57  94 NE6       30.13S
ESTHERVILLE    CLOUDY    61  56  83 N6        30.15S
LE MARS        CLOUDY    59  55  88 CALM      30.16S
SHELDON        CLOUDY    61  57  88 E5        30.15R
SIOUX CITY     CLOUDY    61  57  87 CALM      30.15S
SPENCER        CLOUDY    62  56  80 N6        30.16S
STORM LAKE     PTSUNNY   61  55  82 NE5       30.16R
$$

ABBREVIATIONS USED IN REMARKS
   TC - TEMPERATURE IN CELSIUS
  WCI - WIND CHILL INDEX
   HX - HEAT INDEX
  VSB - VISIBILITY




USA.gov is the U.S. government's official web portal to all federal, state and local government web resources and services.